Weather History for Manila, Philippines

Change the Weather History Date:

Saturday, October 31, 2009

  Actual Average Record
Temperature  
Mean Temperature 79 °F -  
Max Temperature 86 °F 85 °F 93 °F (2006)
Min Temperature 72 °F 74 °F 75 °F (2005)
Cooling Degree Days 14    
Growing Degree Days 29 (Base 50)    
Moisture  
Dew Point 74 °F    
Average Humidity 92    
Maximum Humidity 100    
Minimum Humidity 63    
Precipitation  
Precipitation 0.00 in 0.15 in - ()
Sea Level Pressure  
Sea Level Pressure 29.67 in    
Wind  
Wind Speed 15 mph ()    
Max Wind Speed 39 mph    
Max Gust Speed 56 mph    
Visibility 4.4 miles    
Events Rain    
Averages and records for this station are not official NWS values.
T = Trace of Precipitation, MM = Missing Value Source: Averaged Metar Reports

Daily Weather History Graph

Daily Weather History Graph

Search for Another Location

Airport:

Trip Planner

Search our weather history database for the weather conditions in past years. The results will help you decide how hot, cold, wet, or windy it might be!

Date:

Astronomy

Oct. 31, 2009 Rise Set
Actual Time 5:50 AM PHT 5:28 PM PHT
Civil Twilight 5:28 AM PHT 5:50 PM PHT
Nautical Twilight 5:03 AM PHT 6:15 PM PHT
Astronomical Twilight 4:38 AM PHT 6:40 PM PHT
Moon 3:28 PM PHT (10/31) 3:18 AM PHT (10/31)
Length of Visible Light 12h 21m
Length of Day
11h 37m
Waxing Gibbous, 92% of the Moon is Illuminated
Oct 31
Waxing Gibbous
Nov 3
Full
Nov 9
Last Quarter
Nov 17
New
Nov 25
First Quarter

Hourly Weather History & Observations

Time (PHT) Temp. Heat Index Dew Point Humidity Pressure Visibility Wind Dir Wind Speed Gust Speed Precip Events Conditions
12:00 AM 76 °F - 76 °F 99% 29.62 in 2 mi West 13.4 mph - - Rain Rain
12:00 AM 75.2 °F - 75.2 °F 100% 29.62 in 2.5 mi West 13.8 mph - N/A Rain Rain
1:00 AM 74 °F - 74 °F 99% 29.57 in 2 mi West 20.1 mph - - Rain Rain
1:00 AM 73.4 °F - 73.4 °F 100% 29.56 in 2.5 mi West 20.7 mph - N/A Rain Rain
2:00 AM 72 °F - 72 °F 100% 29.59 in 3 mi SW 17.9 mph - - Rain Rain
2:00 AM 71.6 °F - 71.6 °F 100% 29.56 in 3.1 mi SW 18.4 mph - N/A Rain Rain
3:00 AM 72 °F - 72 °F 100% 29.55 in 3 mi WNW 24.6 mph - - Rain Rain
3:00 AM 71.6 °F - 71.6 °F 100% 29.53 in 3.1 mi WNW 25.3 mph 38.0 mph N/A Rain Rain
4:00 AM 75 °F - 75 °F 99% 32.42 in 3 mi NW 26.8 mph - - Rain Rain
4:00 AM 75.2 °F - 75.2 °F 100% 29.44 in 3.1 mi NW 27.6 mph 39.1 mph N/A Rain Rain
5:00 AM 76 °F - 76 °F 100% 29.41 in 3 mi NNW 31.3 mph - - Rain Light Rain
5:00 AM 77.0 °F - 77.0 °F 100% 29.39 in 3.1 mi NNW 32.2 mph 48.3 mph N/A Rain Rain
6:00 AM 76 °F - 76 °F 100% 32.47 in 4 mi NNE 38.0 mph - - Rain Light Rain
6:00 AM 77.0 °F - 77.0 °F 100% 29.36 in 4.3 mi NNE 39.1 mph 56.4 mph N/A Rain Rain
7:00 AM 74 °F - 74 °F 100% 32.47 in 3 mi East 26.8 mph - - Rain Light Rain
7:00 AM 73.4 °F - 73.4 °F 100% 29.39 in 4.3 mi East 27.6 mph 55.2 mph N/A   Overcast
8:00 AM 74 °F - 74 °F 100% 29.63 in 4 mi ESE 22.4 mph - - Rain Light Rain
8:00 AM 75.2 °F - 75.2 °F 100% 29.62 in 4.3 mi ESE 21.9 mph 36.8 mph N/A Rain Light Rain
9:00 AM 76 °F - 75 °F 96% 29.66 in 4 mi ESE 13.4 mph - - Rain Light Rain
9:00 AM 77.0 °F - 75.2 °F 94% 29.65 in 4.3 mi ESE 15.0 mph 29.9 mph N/A Rain Light Rain
10:00 AM 76 °F - 76 °F 100% 29.70 in 4 mi ESE 11.2 mph - - Rain Light Rain
10:00 AM 77.0 °F - 77.0 °F 100% 29.68 in 4.3 mi South 10.4 mph - N/A Rain Light Rain
11:00 AM 82 °F - 77 °F 81% 29.69 in 4 mi East 11.2 mph - - Rain Light Rain
11:00 AM 82.4 °F 90.9 °F 77.0 °F 84% 29.68 in 4.3 mi East 11.5 mph - N/A Rain Light Rain
12:00 PM 82 °F - 73 °F 67% 29.70 in 6 mi ESE 11.2 mph - - Rain Light Rain
12:00 PM 82.4 °F 89.5 °F 75.2 °F 79% 29.68 in 5.6 mi ESE 11.5 mph - N/A   Mostly Cloudy
1:00 PM 85 °F - 74 °F 63% 29.70 in 6 mi SSE 6.7 mph - -   Haze
1:00 PM 86.0 °F 95.1 °F 75.2 °F 70% 29.68 in 5.6 mi SSE 6.9 mph - N/A   Mostly Cloudy
2:00 PM 80 °F - 72 °F 72% 29.89 in 6 mi WSW 11.2 mph - - Rain Light Rain Showers
2:00 PM 80.6 °F 86.2 °F 75.2 °F 84% 29.71 in 5.6 mi WSW 11.5 mph - N/A   Overcast
3:00 PM 80.6 °F 85.4 °F 73.4 °F 79% 29.71 in 5.6 mi SSW 11.5 mph - N/A Rain Light Rain
4:00 PM 73 °F - 70 °F 88% 29.75 in 6 mi WSW 4.5 mph - - Rain Light Rain
4:00 PM 80.6 °F 83.9 °F 69.8 °F 70% 29.74 in 5.6 mi SSW 4.6 mph - N/A   Overcast
5:00 PM 74 °F - 72 °F 91% 29.76 in 6 mi Calm Calm - - Rain Light Rain
5:00 PM 73.4 °F - 71.6 °F 94% 29.74 in 5.6 mi Calm Calm - N/A Rain Rain
6:00 PM 75.2 °F - 71.6 °F 89% 29.77 in - ENE 4.6 mph - N/A Rain Rain
7:00 PM 75.2 °F - 75.2 °F 100% 29.77 in 5.6 mi ENE 4.6 mph - N/A   Overcast
8:00 PM 75 °F - 71 °F 85% 29.83 in 6 mi Calm Calm - -   Haze
8:00 PM 75.2 °F - 71.6 °F 89% 29.83 in 5.6 mi Calm Calm - N/A   Scattered Clouds
9:00 PM 75.2 °F - 73.4 °F 94% 29.86 in 5.6 mi Calm Calm - N/A   Scattered Clouds
10:00 PM 73.4 °F - 73.4 °F 100% 29.86 in 5.6 mi Calm Calm - N/A   Partly Cloudy
11:00 PM 73 °F - 73 °F 100% 29.87 in 6 mi Calm Calm - -   Haze
11:00 PM 73.4 °F - 73.4 °F 100% 29.86 in 5.6 mi Calm Calm - N/A   Scattered Clouds